This demonstration page uses our WeatherBlox Daily Observations layout. Learn more.

Hourly Observations for April 15, 2016

Temp ( °F °C ) Dew Point ( °F °C ) Humidity (%) Winds ( mph kmh ) Pressure ( in mb ) Visibility ( mi km ) Precip ( " mm )
12:15 am 00:15 Clear 57 14 47 8.4 69 69 SSE 22 35 29.74 1007 10 16.0934 0 0
12:35 am 00:35 Clear 56 13.5 47 8.5 72 72 SSE 20 31 29.77 1008 10 16.0934 0 0
12:55 am 00:55 Clear 56 13.4 47 8.5 72 72 SSE 21 33 29.77 1008 10 16.0934 0 0
1:15 am 01:15 Clear 56 13.2 47 8.5 73 73 SSE 23 37 29.77 1008 10 16.0934 0 0
1:35 am 01:35 Clear 55 13 47 8.6 75 75 SSE 17 28 29.77 1008 10 16.0934 0 0
1:55 am 01:55 Clear 55 13 47 8.6 75 75 SSE 17 28 29.77 1008 10 16.0934 0 0
2:15 am 02:15 Clear 55 13 47 8.6 75 75 SSE 23 37 29.77 1008 10 16.0934 0 0
2:35 am 02:35 Clear 55 13 48 8.7 75 75 SSE 20 31 29.77 1008 10 16.0934 0 0
2:55 am 02:55 Clear 55 13 48 8.7 75 75 SSE 22 35 29.77 1008 10 16.0934 0 0
3:15 am 03:15 Clear 55 12.6 47 8.6 77 77 SSE 22 35 29.77 1008 10 16.0934 0 0
3:35 am 03:35 Clear 54 12.4 47 8.5 77 77 SSE 16 26 29.77 1008 10 16.0934 0 0
3:55 am 03:55 Mostly Cloudy 55 12.5 48 8.7 78 78 SSE 23 37 29.74 1007 10 16.0934 0 0
4:15 am 04:15 Mostly Cloudy 55 12.6 48 8.7 77 77 SSE 20 31 29.74 1007 10 16.0934 0 0
4:35 am 04:35 Partly Cloudy 55 12.5 48 8.7 78 78 SSE 16 26 29.74 1007 10 16.0934 0 0
4:55 am 04:55 Partly Cloudy 55 12.7 48 8.7 77 77 S 26 43 29.74 1007 10 16.0934 0 0
5:15 am 05:15 Partly Cloudy 55 12.8 48 8.7 76 76 S 22 35 29.74 1007 10 16.0934 0 0
5:35 am 05:35 Mostly Cloudy 55 13 48 8.7 75 75 S 29 46 29.74 1007 10 16.0934 0 0
5:55 am 05:55 Mostly Cloudy 55 13 48 8.7 75 75 S 29 46 29.74 1007 10 16.0934 0 0
6:15 am 06:15 Mostly Cloudy 55 13 48 8.8 76 76 S 29 46 29.74 1007 10 16.0934 0 0
6:35 am 06:35 Mostly Cloudy 55 12.7 48 8.8 77 77 S 22 35 29.77 1008 10 16.0934 0 0
6:55 am 06:55 Mostly Cloudy 55 12.7 48 9 78 78 SSE 24 39 29.74 1007 10 16.0934 0 0
7:15 am 07:15 Partly Cloudy 55 12.6 48 9 79 79 S 20 31 29.77 1008 10 16.0934 0 0
7:35 am 07:35 Partly Cloudy 55 12.7 48 9.1 79 79 S 24 39 29.74 1007 10 16.0934 0 0
7:55 am 07:55 Sunny 55 12.8 48 9.1 78 78 S 28 44 29.74 1007 10 16.0934 0 0
8:15 am 08:15 Partly Cloudy 55 13 49 9.2 78 78 S 22 35 29.77 1008 10 16.0934 0 0
8:35 am 08:35 Sunny 56 13.5 49 9.3 76 76 S 20 31 29.77 1008 10 16.0934 0 0
8:55 am 08:55 Sunny 56 13.6 49 9.2 75 75 S 23 37 29.77 1008 10 16.0934 0 0
9:15 am 09:15 Sunny 57 14 48 9.1 73 73 S 22 35 29.74 1007 10 16.0934 0 0
9:35 am 09:35 Sunny 58 14.5 49 9.2 71 71 S 18 30 29.74 1007 10 16.0934 0 0
9:55 am 09:55 Sunny 59 14.8 48 9.1 69 69 S 18 30 29.74 1007 10 16.0934 0 0
10:15 am 10:15 Sunny 59 15.2 48 8.9 66 66 S 22 35 29.74 1007 10 16.0934 0 0
10:35 am 10:35 Sunny 62 16.7 48 8.9 60 60 S 26 43 29.74 1007 10 16.0934 0 0
10:55 am 10:55 Sunny 62 16.6 48 8.7 60 60 S 25 41 29.74 1007 10 16.0934 0 0
11:15 am 11:15 Sunny 63 17.3 48 8.9 58 58 S 25 41 29.74 1007 10 16.0934 0 0
11:35 am 11:35 Sunny 65 18.1 49 9.2 56 56 SSE 31 50 29.71 1006 10 16.0934 0 0
11:55 am 11:55 Sunny 65 18.4 48 9.1 55 55 S 29 46 29.71 1006 10 16.0934 0 0
12:15 pm 12:15 Sunny 66 18.8 48 8.8 52 52 S 26 43 29.71 1006 10 16.0934 0 0
12:35 pm 12:35 Sunny 67 19.2 48 9 52 52 S 26 43 29.71 1006 10 16.0934 0 0
12:55 pm 12:55 Partly Cloudy 67 19.3 49 9.3 53 53 SSE 25 41 29.71 1006 10 16.0934 0 0
1:15 pm 13:15 Sunny 67 19.5 48 9 51 51 S 29 46 29.71 1006 10 16.0934 0 0
1:35 pm 13:35 Partly Cloudy 68 20.2 47 8.1 46 46 S 36 57 29.71 1006 10 16.0934 0 0
1:55 pm 13:55 Partly Cloudy 68 19.9 47 8.4 48 48 S 28 44 29.71 1006 10 16.0934 0 0
2:15 pm 14:15 Partly Cloudy 70 20.9 48 8.8 46 46 S 26 43 29.71 1006 10 16.0934 0 0
2:35 pm 14:35 Sunny 71 21.4 49 9.2 46 46 SSE 33 54 29.68 1005 10 16.0934 0 0
2:55 pm 14:55 Sunny 71 21.5 48 9 45 45 SSE 32 52 29.68 1005 10 16.0934 0 0
3:15 pm 15:15 Partly Cloudy 70 21 48 9 46 46 SSE 23 37 29.68 1005 10 16.0934 0 0
3:35 pm 15:35 Mostly Cloudy 72 22.1 47 8.6 42 42 SSE 26 43 29.68 1005 10 16.0934 0 0
3:55 pm 15:55 Partly Cloudy 73 23 47 8.6 40 40 S 26 43 29.68 1005 10 16.0934 0 0
4:15 pm 16:15 Partly Cloudy 72 22.1 47 8.3 41 41 S 23 37 29.68 1005 10 16.0934 0 0
4:35 pm 16:35 Partly Cloudy 71 21.5 47 8.5 43 43 S 22 35 29.68 1005 10 16.0934 0 0
4:55 pm 16:55 Partly Cloudy 72 22.1 48 8.8 43 43 SSE 20 31 29.68 1005 10 16.0934 0 0
5:15 pm 17:15 Partly Cloudy 71 21.7 48 8.7 43 43 SSE 25 41 29.65 1004 10 16.0934 0 0
5:35 pm 17:35 Sunny 71 21.6 47 8.6 43 43 SSE 23 37 29.68 1005 10 16.0934 0 0
5:55 pm 17:55 Partly Cloudy 72 22 48 8.8 43 43 SSE 24 39 29.68 1005 10 16.0934 0 0
6:15 pm 18:15 Partly Cloudy 71 21.8 47 8.5 43 43 SSE 24 39 29.68 1005 10 16.0934 0 0
6:35 pm 18:35 Mostly Cloudy 71 21.5 47 8.5 43 43 SSE 22 35 29.68 1005 10 16.0934 0 0
6:55 pm 18:55 Partly Cloudy 70 21.1 47 8.2 44 44 SSE 21 33 29.68 1005 10 16.0934 0 0
7:15 pm 19:15 Sunny 69 20.8 47 8.1 44 44 SE 24 39 29.71 1006 10 16.0934 0 0
7:35 pm 19:35 Sunny 69 20.4 46 8 45 45 SSE 21 33 29.71 1006 10 16.0934 0 0
7:55 pm 19:55 Sunny 68 20 46 7.9 46 46 SE 22 35 29.71 1006 10 16.0934 0 0
8:15 pm 20:15 Sunny 67 19.5 46 7.5 46 46 SE 23 37 29.71 1006 10 16.0934 0 0
8:35 pm 20:35 Clear 67 19.2 46 7.5 47 47 SE 18 30 29.71 1006 10 16.0934 0 0
8:55 pm 20:55 Clear 66 18.8 46 7.7 49 49 SE 17 28 29.71 1006 10 16.0934 0 0
9:15 pm 21:15 Clear 65 18.6 46 7.5 49 49 SSE 18 30 29.71 1006 10 16.0934 0 0
9:35 pm 21:35 Partly Cloudy 65 18.4 46 7.5 49 49 SE 17 28 29.71 1006 10 16.0934 0 0
9:55 pm 21:55 Partly Cloudy 64 18 46 7.5 50 50 SSE 15 24 29.74 1007 10 16.0934 0 0
10:15 pm 22:15 Clear 64 18 45 7.3 50 50 SSE 16 26 29.74 1007 10 16.0934 0 0
10:35 pm 22:35 Clear 64 17.7 45 7.3 51 51 SSE 15 24 29.74 1007 10 16.0934 0 0
10:55 pm 22:55 Partly Cloudy 63 17.2 45 7.3 52 52 SSE 13 20 29.77 1008 10 16.0934 0 0
11:15 pm 23:15 Partly Cloudy 62 16.7 45 7.3 54 54 SSE 14 22 29.77 1008 10 16.0934 0 0
11:35 pm 23:35 Partly Cloudy 62 16.9 46 7.9 56 56 SSE 18 30 29.77 1008 10 16.0934 0 0
11:55 pm 23:55 Mostly Cloudy 63 17 47 8.3 57 57 SSE 17 28 29.77 1008 10 16.0934 0 0

Powered by AerisWeather